Meteo Giornale » Osservazioni meteo Gran Bretagna » Londra-Gatwick AP

ore: 12:50 - Osservazioni Meteo Londra-Gatwick AP
Lat. 51° 9' N Lon. 0° 11' W Alt. 62 metri s.l.m.

poco_nuvoloso Europe/London

21 °C

Poco Nuvoloso

Temp. 24 Ore

14 °C

22 °C

Nord-Ovest

13 Km/h

Dew point 8 °C

Umidità 43 %

Visibilità  10 Km

Il sole sorge alle ore 05:28

Il sole tramonta alle ore 20:45

Data e Ora Cielo e Fenomeni T °C DP °C Um. % Pres. hPa Vis. km Vento km/h
Oggi h: 12:50 poco_nuvoloso Poco Nuvoloso 21 8 43 1016 10 NO 13
Oggi h: 12:20 nuvoloso Nuvoloso 20 8 45 1016 10 N 11.1
Oggi h: 11:50 poco_nuvoloso Poco Nuvoloso 20 8 45 1016 10 NO 13
Oggi h: 11:20 poco_nuvoloso Poco Nuvoloso 19 8 48 1016 10 NO 14.8
Oggi h: 10:50 poco_nuvoloso Poco Nuvoloso 19 9 52 1016 10 N/NO 16.7
Oggi h: 10:20 sereno Sereno 19 9 52 1016 10 N/NO 14.8
Oggi h: 09:50 poco_nuvoloso Poco Nuvoloso 18 9 55 1016 10 N/NO 18.5
Oggi h: 09:20 poco_nuvoloso Poco Nuvoloso 18 9 55 1016 10 N/NO 14.8
Oggi h: 08:50 sereno Sereno 17 10 63 1016 10 N/NO 13
Oggi h: 08:20 sereno Sereno 17 9 59 1015 10 N/NO 13
Oggi h: 07:50 sereno Sereno 16 10 67 1015 10 N/NO 13
Oggi h: 07:20 sereno Sereno 15 10 72 1015 10 N/NO 13
Oggi h: 06:50 sereno Sereno 14 11 82 1015 10 NO 11.1
Oggi h: 06:20 sereno Sereno 14 11 82 1015 10 O/NO 9.3
Oggi h: 05:50 sereno Sereno 14 11 82 1015 10 NO 9.3
Oggi h: 05:20 sereno Sereno 14 11 82 1015 10 NO 9.3
Oggi h: 03:50 sereno Sereno 14 10 76 1014 10 O/NO 7.4
Oggi h: 03:20 sereno Sereno 15 10 72 1015 10 N 5.5
Oggi h: 02:50 sereno Sereno 15 11 76 1015 10 O/NO 11.1
Oggi h: 02:20 sereno Sereno 15 12 82 1015 10 O 9.3
Oggi h: 01:50 sereno Sereno 16 13 82 1015 10 O/SO 9.3
Oggi h: 01:20 sereno Sereno 16 13 82 1015 10 O/SO 7.4
Oggi h: 00:50 sereno Sereno 16 13 82 1015 10 N 5.5
Oggi h: 00:20 sereno Sereno 16 14 87 1015 10 SO 9.3
Ieri h: 23:50 sereno Sereno 16 14 87 1015 10 N 5.5
Ieri h: 23:20 sereno Sereno 16 14 87 1015 10 O/SO 7.4
Ieri h: 22:50 sereno Sereno 17 13 77 1016 10 O/SO 9.3
Ieri h: 22:20 sereno Sereno 17 13 77 1016 10 O/SO 9.3
Ieri h: 21:50 sereno Sereno 18 13 72 1016 10 SO 9.3
Ieri h: 21:20 sereno Sereno 18 13 72 1016 10 O/SO 11.1
Ieri h: 20:50 sereno Sereno 18 13 72 1015 10 O/SO 13
Ieri h: 20:20 sereno Sereno 19 12 63 1015 10 SO 13
Ieri h: 19:50 sereno Sereno 19 12 63 1015 10 SO 16.7
Ieri h: 19:20 sereno Sereno 20 11 56 1015 10 SO 14.8
Ieri h: 18:20 poco_nuvoloso Poco Nuvoloso 20 12 59 1015 10 O/SO 22.2
Ieri h: 17:50 nuvoloso Nuvoloso 21 11 52 1015 10 SO 20.3
Ieri h: 17:20 poco_nuvoloso Poco Nuvoloso 22 11 49 1015 10 SO 18.5
Ieri h: 16:50 poco_nuvoloso Poco Nuvoloso 21 11 52 1015 10 SO 16.7
Ieri h: 16:20 poco_nuvoloso Poco Nuvoloso 22 11 49 1016 10 SO 18.5
Ieri h: 15:50 nuvoloso Nuvoloso 22 10 46 1016 10 O/SO 11.1
Ieri h: 15:20 nuvoloso Nuvoloso 21 10 49 1016 10 O 11.1
Ieri h: 14:50 nuvoloso Nuvoloso 21 10 49 1016 10 O 16.7
Ieri h: 14:20 nuvoloso Nuvoloso 21 9 46 1016 10 O 11.1
Ieri h: 13:50 poco_nuvoloso Poco Nuvoloso 22 9 43 1016 10 O 14.8